Novato, CA

10:32 PM PDT on October 20, 2019 (GMT -0700)
Gnoss

Weather History for KDVO - September, 2019

Change the Weather History Date:

Monday, September 16, 2019

  Actual Average (WUND) Record (WUND)
Temperature  
Mean Temperature 68 °F -  
Max Temperature 75 °F - - (-1)
Min Temperature 62 °F - - (-1)
Cooling Degree Days 4    
Growing Degree Days 18 (Base 50)    
Moisture  
Dew Point 54 °F    
Average Humidity 63    
Maximum Humidity 94    
Minimum Humidity 38    
Precipitation  
Precipitation 0.00 in - - ()
Sea Level Pressure  
Sea Level Pressure 29.92 in    
Wind  
Wind Speed 8 mph ()    
Max Wind Speed 22 mph    
Max Gust Speed 31 mph    
Visibility 10.0 miles    
Events      
Averages and records for this station are not official NWS values.
T = Trace of Precipitation, MM = Missing Value Source: Averaged Metar Reports

Daily Weather History Graph

Daily Weather History Graph

Search for Another Location

Airport or City:

Astronomy

Sep. 16, 2019 Rise Set
Actual Time 6:52 AM PDT 7:16 PM PDT
Civil Twilight 6:26 AM PDT 7:43 PM PDT
Nautical Twilight 5:55 AM PDT 8:14 PM PDT
Astronomical Twilight 5:23 AM PDT 8:45 PM PDT
Moon 8:56 PM PDT (9/16) 9:03 AM PDT (9/16)
Length of Visible Light 13h 16m
Length of Day
12h 24m
Waning Gibbous, 94% of the Moon is Illuminated
Sep 16
Waning Gibbous
Sep 21
Last Quarter
Sep 28
New
Oct 5
First Quarter
Oct 13
Full

Hourly Weather History & Observations

Time (PDT) Temp. Dew Point Humidity Pressure Visibility Wind Dir Wind Speed Gust Speed Precip Events Conditions
12:15 AM 68.0 °F 62.6 °F 83% 29.85 in 10.0 mi North - - N/A   Overcast
12:35 AM 68.0 °F 62.6 °F 83% 29.85 in 10.0 mi Calm Calm - N/A   Overcast
12:55 AM 68.0 °F 62.6 °F 83% 29.85 in 10.0 mi West 9.2 mph - N/A   Overcast
1:15 AM 68.0 °F 62.6 °F 83% 29.86 in 10.0 mi Variable 5.8 mph 13.8 mph N/A   Overcast
1:35 AM 68.0 °F 62.6 °F 83% 29.85 in 10.0 mi Calm Calm - N/A   Overcast
1:55 AM 68.0 °F 62.6 °F 83% 29.85 in 10.0 mi Calm Calm - N/A   Overcast
2:15 AM 66.2 °F 62.6 °F 88% 29.85 in 10.0 mi NNE 6.9 mph - N/A   Overcast
2:35 AM 66.2 °F 62.6 °F 88% 29.84 in 10.0 mi North 4.6 mph - N/A   Overcast
2:55 AM 66.2 °F 62.6 °F 88% 29.84 in 10.0 mi North - - N/A   Overcast
3:15 AM 66.2 °F 62.6 °F 88% 29.84 in 10.0 mi Calm Calm - N/A   Overcast
3:35 AM 64.4 °F 62.6 °F 94% 29.84 in 10.0 mi Calm Calm - N/A   Overcast
3:55 AM 66.2 °F 62.6 °F 88% 29.85 in 10.0 mi Calm Calm - N/A   Overcast
4:15 AM 66.2 °F 60.8 °F 83% 29.85 in 10.0 mi Variable 4.6 mph 12.7 mph N/A   Overcast
4:35 AM 66.2 °F 59.0 °F 78% 29.85 in 10.0 mi West 11.5 mph 18.4 mph N/A   Mostly Cloudy
4:55 AM 66.2 °F 57.2 °F 73% 29.85 in 10.0 mi WNW 12.7 mph - N/A   Overcast
5:15 AM 66.2 °F 55.4 °F 68% 29.85 in 10.0 mi WNW 12.7 mph - N/A   Overcast
5:35 AM 64.4 °F 55.4 °F 73% 29.86 in 10.0 mi WNW 10.4 mph 23.0 mph N/A   Overcast
5:55 AM 64.4 °F 57.2 °F 77% 29.86 in 10.0 mi WNW 8.1 mph 15.0 mph N/A   Mostly Cloudy
6:15 AM 64.4 °F 55.4 °F 73% 29.87 in 10.0 mi West 9.2 mph 20.7 mph N/A   Overcast
6:35 AM 62.6 °F 57.2 °F 82% 29.88 in 10.0 mi Variable 4.6 mph 12.7 mph N/A   Overcast
6:55 AM 62.6 °F 57.2 °F 82% 29.88 in 10.0 mi WSW 4.6 mph - N/A   Overcast
7:15 AM 62.6 °F 57.2 °F 82% 29.89 in 10.0 mi WSW 5.8 mph - N/A   Overcast
7:35 AM 62.6 °F 57.2 °F 82% 29.89 in 10.0 mi Variable 4.6 mph 11.5 mph N/A   Overcast
7:55 AM 62.6 °F 57.2 °F 82% 29.90 in 10.0 mi NNE 4.6 mph - N/A   Overcast
8:15 AM 62.6 °F 57.2 °F 82% 29.91 in 10.0 mi Calm Calm - N/A   Mostly Cloudy
8:35 AM 64.4 °F 57.2 °F 77% 29.91 in 10.0 mi Variable 4.6 mph - N/A   Scattered Clouds
8:55 AM 64.4 °F 57.2 °F 77% 29.91 in 10.0 mi Variable 5.8 mph - N/A   Scattered Clouds
9:15 AM 66.2 °F 55.4 °F 68% 29.91 in 10.0 mi West 9.2 mph - N/A   Partly Cloudy
9:35 AM 68.0 °F 55.4 °F 64% 29.92 in 10.0 mi West 8.1 mph 17.3 mph N/A   Clear
9:55 AM 69.8 °F 53.6 °F 56% 29.93 in 10.0 mi WNW 10.4 mph 16.1 mph N/A   Clear
10:15 AM 69.8 °F 53.6 °F 56% 29.93 in 10.0 mi WNW 10.4 mph 17.3 mph N/A   Clear
10:35 AM 69.8 °F 53.6 °F 56% 29.94 in 10.0 mi West 10.4 mph 17.3 mph N/A   Clear
11:15 AM 71.6 °F 51.8 °F 50% 29.94 in 10.0 mi WNW 12.7 mph 19.6 mph N/A   Clear
11:35 AM 73.4 °F 51.8 °F 47% 29.94 in 10.0 mi WNW 13.8 mph 19.6 mph N/A   Clear
12:15 PM 73.4 °F 50.0 °F 44% 29.95 in 10.0 mi WNW 17.3 mph 26.5 mph N/A   Clear
12:35 PM 73.4 °F 50.0 °F 44% 29.94 in 10.0 mi West 18.4 mph 26.5 mph N/A   Clear
12:55 PM 73.4 °F 50.0 °F 44% 29.95 in 10.0 mi WNW 13.8 mph 24.2 mph N/A   Clear
1:15 PM 73.4 °F 50.0 °F 44% 29.94 in 10.0 mi WSW 16.1 mph 24.2 mph N/A   Clear
1:35 PM 75.2 °F 50.0 °F 41% 29.96 in 10.0 mi West 15.0 mph 21.9 mph N/A   Clear
1:55 PM 73.4 °F 46.4 °F 38% 29.96 in 10.0 mi WNW 20.7 mph 28.8 mph N/A   Clear
2:15 PM 75.2 °F 50.0 °F 41% 29.95 in 10.0 mi West 12.7 mph 23.0 mph N/A   Clear
2:35 PM 75.2 °F 50.0 °F 41% 29.95 in 10.0 mi WSW 18.4 mph 28.8 mph N/A   Clear
2:55 PM 75.2 °F 50.0 °F 41% 29.95 in 10.0 mi West 15.0 mph 24.2 mph N/A   Clear
3:15 PM 75.2 °F 48.2 °F 38% 29.96 in 10.0 mi WNW 19.6 mph 31.1 mph N/A   Clear
3:35 PM 75.2 °F 48.2 °F 38% 29.95 in 10.0 mi West 13.8 mph 24.2 mph N/A   Clear
3:55 PM 73.4 °F 48.2 °F 41% 29.96 in 10.0 mi West 20.7 mph 27.6 mph N/A   Clear
4:15 PM 73.4 °F 48.2 °F 41% 29.95 in 10.0 mi West 21.9 mph - N/A   Clear
4:35 PM 73.4 °F 48.2 °F 41% 29.95 in 10.0 mi West 19.6 mph - N/A   Clear
4:55 PM 71.6 °F 48.2 °F 43% 29.95 in 10.0 mi West 17.3 mph 27.6 mph N/A   Clear
5:15 PM 71.6 °F 50.0 °F 46% 29.95 in 10.0 mi WSW 19.6 mph 26.5 mph N/A   Clear
5:35 PM 71.6 °F 48.2 °F 43% 29.95 in 10.0 mi West 13.8 mph 20.7 mph N/A   Clear
5:55 PM 71.6 °F 48.2 °F 43% 29.96 in 10.0 mi West 12.7 mph - N/A   Clear
6:15 PM 69.8 °F 50.0 °F 49% 29.96 in 10.0 mi North - - N/A   Clear
6:35 PM 68.0 °F 50.0 °F 52% 29.97 in 10.0 mi WNW 9.2 mph 17.3 mph N/A   Clear
6:55 PM 66.2 °F 50.0 °F 56% 29.97 in 10.0 mi West 12.7 mph 18.4 mph N/A   Clear
7:15 PM 66.2 °F 50.0 °F 56% 29.97 in 10.0 mi WNW 8.1 mph - N/A   Clear
7:35 PM 64.4 °F 51.8 °F 64% 29.97 in 10.0 mi WNW 5.8 mph 16.1 mph N/A   Clear
7:55 PM 64.4 °F 50.0 °F 59% 29.97 in 10.0 mi WNW 10.4 mph - N/A   Clear
8:15 PM 64.4 °F 51.8 °F 64% 29.98 in 10.0 mi NW 13.8 mph 23.0 mph N/A   Clear
8:35 PM 62.6 °F 51.8 °F 68% 29.98 in 10.0 mi NW 13.8 mph 23.0 mph N/A   Clear
8:55 PM 64.4 °F 51.8 °F 64% 29.98 in 10.0 mi NW 17.3 mph 26.5 mph N/A   Clear
9:15 PM 62.6 °F 51.8 °F 68% 29.99 in 10.0 mi NW 10.4 mph 17.3 mph N/A   Clear
9:35 PM 64.4 °F 51.8 °F 64% 29.99 in 10.0 mi WNW 10.4 mph 18.4 mph N/A   Clear
9:55 PM 64.4 °F 50.0 °F 59% 29.99 in 10.0 mi WNW 13.8 mph - N/A   Clear
10:15 PM 64.4 °F 50.0 °F 59% 29.99 in 10.0 mi WNW 17.3 mph - N/A   Clear
10:35 PM 64.4 °F 50.0 °F 59% 30.00 in 10.0 mi NW 9.2 mph 20.7 mph N/A   Clear
10:55 PM 62.6 °F 50.0 °F 63% 29.99 in 10.0 mi Variable 6.9 mph - N/A   Clear
11:15 PM 64.4 °F 48.2 °F 56% 30.00 in 10.0 mi NW 12.7 mph - N/A   Clear
11:35 PM 64.4 °F 48.2 °F 56% 30.00 in 10.0 mi Calm Calm 12.7 mph N/A   Clear
11:55 PM 62.6 °F 50.0 °F 63% 30.00 in 10.0 mi Calm Calm - N/A   Clear